Regional Weather Roundup
Issued by NWS

Home | Current Version | Previous Version | Text Only | Print | Product List | Glossary Off
Versions: 1 2 3 4 5 6 7 8 9 10 11 12 13 14 15 16 17 18 19 20 21 22 23 24 25 26 27 28 29 30 31 32 33 34 35 36 37 38 39 40 41 42 43 44 45 46 47 48 49 50

291
ASUS43 KFSD 240310
RWRSD

WEATHER ROUNDUP FOR SOUTH DAKOTA
NATIONAL WEATHER SERVICE SIOUX FALLS SD
1000 PM CDT SUN JUL 23 2017

NOTE: "FAIR" INDICATES FEW OR NO CLOUDS BELOW 12,000 FEET WITH NO
SIGNIFICANT WEATHER AND/OR OBSTRUCTIONS TO VISIBILITY.


SDZ001>005-009-010-012>017-240400-
NORTHWEST AND NORTH CENTRAL SOUTH DAKOTA

CITY           SKY/WX    TMP DP  RH WIND       PRES   REMARKS
BUFFALO          N/A     78  50  37 E12       29.88S
FAITH            N/A     77  52  41 SE15      29.97R
MOBRIDGE       CLEAR     70  59  68 SE10      29.96R
$$

SDZ012>016-024>037-041>051-057-063-072>074-240400-
SOUTHWEST AND SOUTH CENTRAL SOUTH DAKOTA

CITY           SKY/WX    TMP DP  RH WIND       PRES   REMARKS
RAPID CTY ARPT CLEAR     77  47  34 E10       29.96S
PIERRE         CLEAR     74  53  48 E10       29.95S
CUSTER         CLOUDY    75  48  38 E12       30.13S
ELLSWORTH AFB  CLEAR     79  48  33 SE9       29.96S
PHILIP         CLEAR     78  50  37 E10       29.95R
PINE RIDGE     PTCLDY    77  56  48 E10       29.97S
SPEARFISH      FAIR      77  46  33 E10       29.98F
WINNER         FAIR      76  55  48 SE10      29.99R
$$

SDZ004>011-016>023-039-040-240400-
NORTHEAST SOUTH DAKOTA

CITY           SKY/WX    TMP DP  RH WIND       PRES   REMARKS
ABERDEEN       CLEAR     70  60  70 E7        30.00R
WATERTOWN      CLEAR     66  60  81 E3        30.02R
BROOKINGS      CLEAR     68  58  70 E7        30.03R
SISSETON         N/A     67  61  81 S3        30.01R
$$

SDZ017-020-022-023-036>040-048>070-240400-
SOUTHEAST SOUTH DAKOTA

CITY           SKY/WX    TMP DP  RH WIND       PRES   REMARKS
SIOUX FALLS    CLEAR     69  61  75 NE8       30.01R
HURON          CLEAR     72  63  73 E3        30.00R
CHAMBERLAIN    CLEAR     74  59  59 E6        29.99R
MITCHELL       CLEAR     70  62  76 E5        30.00R
YANKTON        CLEAR     69  61  75 NE6       29.99R
$$

ABBREVIATIONS USED IN REMARKS
   TC - TEMPERATURE IN CELSIUS
  WCI - WIND CHILL INDEX
   HX - HEAT INDEX
  VSB - VISIBILITY





USA.gov is the U.S. government's official web portal to all federal, state and local government web resources and services.